{"data":{"norad_id":62617,"epoch":"2026-09-21T19:29:09.746304Z","epoch_age_seconds":204340,"freshness":"STALE","line1":"1 62617U 25009J   26264.81191836  .00106556  00000+0  89481-3 0  9990","line2":"2 62617  97.3792 356.6443 0003289 261.2653  98.8237 15.69572421 94427","mean_motion":15.69572421,"eccentricity":0.0003289,"inclination_deg":97.3792,"raan_deg":356.6443,"arg_perigee_deg":261.2653,"mean_anomaly_deg":98.8237,"bstar":0.00089481,"rev_number":9442,"period_min":91.744731286917,"perigee_km":357.90426472831,"apogee_km":362.33669049708,"semimajor_km":6738.2574776127,"source":"CELESTRAK","updated_at":"2026-09-23T09:00:21.529333Z"}}